カタログに戻る

METEOR 2-8 DEB

運用中PO
NORAD 36862·DEBRIS·🇷🇺 Russia

打ち上げ Mar 25, 1982 から Plesetsk Cosmodrome

Loading…

次のパス (今後24時間)

TLE

古いSource: Space-Track

元期: Aug 31, 2026, 13:37 UTC

1 36862U 82025AZ  26243.56739676  .00003308  00000-0  13768-2 0  9999
2 36862  82.5421 180.5166 0020098 337.3758  22.6537 14.26026236626574

AllMySatでMETEOR 2-8 DEBをリアルタイム追跡

Download on the App Store